,,PA_Meas_PMT16A,,PR_Meas_QMR101_102,,RH_Meas_QMH101,,SR_Meas_QMS101,,TA_Meas_QMH101,,GenWind,,GenWind,
time,status,PA,status,PR,status,RH,status,SR,status,TA,status,DirAvg,status,SpdAvg,
2014-07-09, 00:00:04,VALID,918.525,VALID,0,VALID,95.7272,VALID,0,VALID,18.5525,VALID,25,VALID,0,
2014-07-09, 00:01:04,VALID,918.507,VALID,0,VALID,95.7196,VALID,0,VALID,18.533,VALID,25,VALID,0,
2014-07-09, 00:02:04,VALID,918.474,VALID,0,VALID,95.7044,VALID,0,VALID,18.533,VALID,25,VALID,0,
2014-07-09, 00:03:04,VALID,918.438,VALID,0,VALID,95.7044,VALID,0,VALID,18.5525,VALID,25,VALID,0,
2014-07-09, 00:04:04,VALID,918.428,VALID,0,VALID,95.7349,VALID,0.107441,VALID,18.572,VALID,25,VALID,0,
2014-07-09, 00:05:04,VALID,918.434,VALID,0,VALID,95.7501,VALID,0,VALID,18.5914,VALID,25,VALID,0,
2014-07-09, 00:06:04,VALID,918.432,VALID,0,VALID,95.7577,VALID,0,VALID,18.5914,VALID,25,VALID,0,
2014-07-09, 00:07:04,VALID,918.376,VALID,0,VALID,95.7654,VALID,0,VALID,18.5929,VALID,25,VALID,0,
2014-07-09, 00:08:04,VALID,918.374,VALID,0,VALID,95.773,VALID,0,VALID,18.572,VALID,25,VALID,0.30625,
2014-07-09, 00:09:04,VALID,918.364,VALID,0,VALID,95.773,VALID,0,VALID,18.5525,VALID,25,VALID,0.295312,
2014-07-09, 00:10:04,VALID,918.339,VALID,0,VALID,95.7806,VALID,0,VALID,18.5539,VALID,25,VALID,0.548828,
2014-07-09, 00:11:04,VALID,918.328,VALID,0,VALID,95.8035,VALID,0,VALID,18.5135,VALID,25,VALID,0.213281,
2014-07-09, 00:12:04,VALID,918.321,VALID,0,VALID,95.8187,VALID,0,VALID,18.494,VALID,25,VALID,0.592969,
2014-07-09, 00:13:04,VALID,918.279,VALID,0,VALID,95.7882,VALID,0,VALID,18.4954,VALID,25,VALID,0.451953,
2014-07-09, 00:14:04,VALID,918.256,VALID,0,VALID,95.7654,VALID,0,VALID,18.4759,VALID,25,VALID,0.667188,
2014-07-09, 00:15:04,VALID,918.201,VALID,0,VALID,95.7577,VALID,0,VALID,18.416,VALID,25,VALID,0.792188,
2014-07-09, 00:16:04,VALID,918.196,VALID,0,VALID,95.7501,VALID,0,VALID,18.3965,VALID,25,VALID,0.794922,
2014-07-09, 06:48:04,VALID,916.32,VALID,0,VALID,95.2775,VALID,14.612,VALID,18.4355,VALID,214,VALID,0.592969,
2014-07-09, 06:49:04,VALID,916.32,VALID,0,VALID,95.3384,VALID,15.1492,VALID,18.4355,VALID,214,VALID,0.439453,
2014-07-09, 06:50:04,VALID,916.361,VALID,0,VALID,95.3766,VALID,15.6864,VALID,18.377,VALID,214,VALID,0.491406,
2014-07-09, 06:51:04,VALID,916.392,VALID,0,VALID,95.4528,VALID,16.2236,VALID,18.3979,VALID,214,VALID,0.473437,
2014-07-09, 06:52:04,VALID,916.394,VALID,0,VALID,95.5443,VALID,16.6534,VALID,18.4174,VALID,214,VALID,0.655078,
2014-07-09, 06:53:04,VALID,916.431,VALID,0,VALID,95.5748,VALID,17.0831,VALID,18.4188,VALID,214,VALID,0.414453,
2014-07-09, 06:54:04,VALID,916.47,VALID,0,VALID,95.6434,VALID,17.6203,VALID,18.3979,VALID,214,VALID,0.331641,
2014-07-09, 06:55:04,VALID,916.494,VALID,0,VALID,95.6815,VALID,18.1576,VALID,18.377,VALID,214,VALID,0.461328,
2014-07-09, 06:56:04,VALID,916.516,VALID,0,VALID,95.6891,VALID,18.5873,VALID,18.4188,VALID,214,VALID,0.409375,
2014-07-09, 06:57:04,VALID,916.522,VALID,0,VALID,95.7654,VALID,19.0171,VALID,18.3979,VALID,214,VALID,0.190234,
2014-07-09, 06:58:04,VALID,916.508,VALID,0,VALID,95.8187,VALID,19.5543,VALID,18.4174,VALID,214,VALID,0.0269531,
2014-07-09, 06:59:04,VALID,916.508,VALID,0,VALID,95.8492,VALID,20.0915,VALID,18.4564,VALID,214,VALID,0,
2014-07-09, 20:12:04,VALID,916.375,VALID,0,VALID,90.6119,VALID,0,VALID,20.6194,VALID,5,VALID,1.27695,
2014-07-09, 20:13:04,VALID,916.367,VALID,0,VALID,90.3146,VALID,0,VALID,20.6194,VALID,353,VALID,1.46367,
2014-07-09, 20:14:04,VALID,916.413,VALID,0,VALID,90.2003,VALID,0,VALID,20.6194,VALID,349,VALID,1.35078,
2014-07-09, 20:15:04,VALID,916.446,VALID,0,VALID,90.0859,VALID,0,VALID,20.6194,VALID,355,VALID,1.09922,
2014-07-09, 20:16:04,VALID,916.464,VALID,0,VALID,90.1164,VALID,0,VALID,20.639,VALID,344,VALID,0.958203,
2014-07-09, 20:17:04,VALID,916.506,VALID,0,VALID,90.0935,VALID,0,VALID,20.639,VALID,344,VALID,1.31602,
2014-07-09, 20:18:04,VALID,916.52,VALID,0,VALID,90.185,VALID,0,VALID,20.6585,VALID,3,VALID,0.992188,
2014-07-09, 20:19:04,VALID,916.528,VALID,0,VALID,89.9716,VALID,0,VALID,20.678,VALID,347,VALID,1.12539,
2014-07-09, 20:20:04,VALID,916.574,VALID,0,VALID,89.72,VALID,0,VALID,20.6585,VALID,336,VALID,1.25742,
2014-07-09, 20:21:04,VALID,916.591,VALID,0,VALID,89.7733,VALID,0,VALID,20.6975,VALID,349,VALID,1.14727,
2014-07-09, 20:22:04,VALID,916.619,VALID,0,VALID,89.6209,VALID,0,VALID,20.6959,VALID,346,VALID,1.48516,
2014-07-09, 20:23:04,VALID,916.634,VALID,0,VALID,89.6895,VALID,0,VALID,20.717,VALID,328,VALID,0.623828,
2014-07-09, 20:24:04,VALID,916.668,VALID,0,VALID,89.6361,VALID,0,VALID,20.6975,VALID,347,VALID,1.375,
2014-07-09, 20:25:04,VALID,916.678,VALID,0,VALID,89.4837,VALID,0,VALID,20.6569,VALID,356,VALID,1.15313,
2014-07-09, 20:26:04,VALID,916.723,VALID,0,VALID,89.72,VALID,0,VALID,20.6975,VALID,346,VALID,0.771094,
2014-07-09, 20:27:04,VALID,916.716,VALID,0,VALID,89.7276,VALID,0,VALID,20.6975,VALID,355,VALID,0.876953,
2014-07-09, 20:28:04,VALID,916.768,VALID,0,VALID,89.6361,VALID,0,VALID,20.6975,VALID,355,VALID,1.07617,
2014-07-09, 20:29:04,VALID,916.74,VALID,0,VALID,89.3846,VALID,0,VALID,20.678,VALID,10,VALID,1.75664,
2014-07-09, 20:42:04,VALID,916.925,VALID,0,VALID,88.3783,VALID,0,VALID,20.7365,VALID,321,VALID,0.652344,
2014-07-09, 20:43:04,VALID,916.917,VALID,0,VALID,88.1496,VALID,0,VALID,20.7349,VALID,325,VALID,1.16562,
2014-07-09, 20:44:04,VALID,916.966,VALID,0,VALID,88.1648,VALID,0,VALID,20.7755,VALID,329,VALID,0.666016,
2014-07-09, 20:45:04,VALID,916.957,VALID,0,VALID,88.2258,VALID,0,VALID,20.756,VALID,319,VALID,0.70625,
2014-07-09, 20:46:04,VALID,916.998,VALID,0,VALID,88.0581,VALID,0,VALID,20.7544,VALID,315,VALID,0.808984,
2014-07-09, 20:47:04,VALID,917.016,VALID,0,VALID,88.4697,VALID,0.107441,VALID,20.7739,VALID,315,VALID,0.344531,
2014-07-09, 20:48:04,VALID,917.034,VALID,0,VALID,88.6603,VALID,0,VALID,20.8145,VALID,315,VALID,0.251172,
2014-07-09, 20:49:04,VALID,917.022,VALID,0,VALID,88.5155,VALID,0,VALID,20.8145,VALID,315,VALID,0.141016,
2014-07-09, 20:50:04,VALID,917.052,VALID,0,VALID,88.2258,VALID,0,VALID,20.8145,VALID,315,VALID,0.517578,
2014-07-09, 20:51:04,VALID,917.053,VALID,0,VALID,88.363,VALID,0,VALID,20.8535,VALID,315,VALID,0.0734375,
2014-07-09, 20:52:04,VALID,917.094,VALID,0,VALID,88.1953,VALID,0,VALID,20.8324,VALID,315,VALID,0.260938,
2014-07-09, 20:53:04,VALID,917.085,VALID,0,VALID,87.7608,VALID,0,VALID,20.873,VALID,315,VALID,0.351172,
2014-07-09, 20:54:04,VALID,917.094,VALID,0,VALID,87.6998,VALID,0,VALID,20.873,VALID,315,VALID,0.451562,
2014-07-09, 21:07:04,VALID,917.272,VALID,0,VALID,88.2944,VALID,0,VALID,20.9495,VALID,315,VALID,0,
2014-07-09, 21:08:04,VALID,917.308,VALID,0,VALID,88.1953,VALID,0,VALID,20.93,VALID,315,VALID,0,
2014-07-09, 21:09:04,VALID,917.299,VALID,0,VALID,88.0276,VALID,0.107441,VALID,20.9511,VALID,315,VALID,0.301172,
2014-07-09, 21:10:04,VALID,917.327,VALID,0,VALID,88.02,VALID,0.107441,VALID,20.9706,VALID,315,VALID,0.297656,
2014-07-09, 21:11:04,VALID,917.349,VALID,0,VALID,88.0505,VALID,0.107441,VALID,20.93,VALID,315,VALID,0.0433594,
2014-07-09, 21:12:04,VALID,917.352,VALID,0,VALID,87.7379,VALID,0,VALID,20.9511,VALID,315,VALID,0,
